Location: K�ln
(50.9455°N, 6.9544°E)
Time: 22:32:50
(UTC+02:00)

ISS - Visible Passes

Search period start: 26 July 2017 00:00
Search period end: 05 August 2017 00:00
Orbit: 400 x 408 km, 51.6° (Epoch: 27 July)

Date Brightness Start Highest point End Pass type
(mag) Time Alt. Az. Time Alt. Az. Time Alt. Az.
26 Jul -3.8 00:51:14 10° W 00:54:29 76° N 00:56:42 19° E visible
26 Jul -2.3 02:27:45 10° WNW 02:29:15 25° W 02:29:15 25° W visible
26 Jul -3.5 22:22:41 10° SW 22:25:47 43° SSE 22:28:53 10° E visible
26 Jul -3.8 23:58:53 10° W 00:02:09 81° N 00:05:20 11° E visible
27 Jul -3.3 01:35:26 10° WNW 01:37:56 49° W 01:37:56 49° W visible
27 Jul -3.9 23:06:34 10° WSW 23:09:49 87° S 23:13:06 10° E visible
28 Jul -3.9 00:43:07 10° W 00:46:22 82° N 00:46:58 56° E visible
28 Jul -3.9 22:14:16 10° WSW 22:17:31 69° SSE 22:20:46 10° ENE visible
28 Jul -3.7 23:50:45 10° W 23:54:01 76° N 23:56:08 20° E visible
29 Jul -2.1 01:27:16 10° W 01:28:45 24° W 01:28:45 24° W visible
29 Jul -3.7 22:58:23 10° W 23:01:39 78° N 23:04:55 10° E visible
30 Jul -3.9 00:34:55 10° WNW 00:37:58 73° WSW 00:37:58 73° WSW visible
30 Jul -3.8 22:06:00 10° W 22:09:16 88° N 22:12:32 10° E visible
30 Jul -3.9 23:42:33 10° W 23:45:49 86° N 23:47:12 32° E visible
31 Jul -1.4 01:19:07 10° W 01:19:49 15° W 01:19:49 15° W visible
31 Jul -3.7 22:50:10 10° W 22:53:26 77° N 22:56:29 12° E visible
01 Aug -3.0 00:26:41 10° W 00:29:06 40° WSW 00:29:06 40° WSW visible
01 Aug -3.7 21:57:45 10° W 22:01:01 77° N 22:04:17 10° E visible
01 Aug -3.9 23:34:17 10° WNW 23:37:32 72° SSW 23:38:22 45° SE visible
02 Aug -3.9 22:41:52 10° W 22:45:09 90° SSE 22:47:40 16° ESE visible
03 Aug -2.2 00:18:29 10° W 00:20:17 24° WSW 00:20:17 24° WSW visible
03 Aug -3.7 21:49:27 10° W 21:52:44 79° N 21:55:59 10° E visible
03 Aug -3.5 23:25:59 10° W 23:29:07 45° SSW 23:29:36 41° S visible
04 Aug -3.8 22:33:32 10° WNW 22:36:46 65° SSW 22:38:56 19° ESE visible
